Change the Weather History Date:

Saturday, October 11, 2014

  Actual Average Record
Temperature  
Mean Temperature 56 °F 57 °F  
Max Temperature 62 °F 68 °F 88 °F (1963)
Min Temperature 49 °F 47 °F 25 °F (1964)
Degree Days  
Heating Degree Days 9 8  
Month to date heating degree days 98 77  
Since 1 July heating degree days 154 135  
Cooling Degree Days 0 1  
Month to date cooling degree days 8 13  
Year to date cooling degree days 1072 1118  
Growing Degree Days 6 (Base 50)    
Moisture  
Dew Point 44 °F    
Average Humidity 68    
Maximum Humidity 89    
Minimum Humidity 47    
Precipitation  
Precipitation 0.01 in 0.11 in 0.81 in (1919)
Month to date precipitation 2.04 1.15  
Year to date precipitation 35.70 33.57  
Snow  
Snow 0.00 in 0.10 in 0.00 in ()
Month to date snowfall 0.0 0.1  
Since 1 July snowfall 0.0 0.1  
Since 1 September snowfall 0.0 0.1  
Snow Depth 0.00 in    
Sea Level Pressure  
Sea Level Pressure 30.10 in    
Wind  
Wind Speed 10 mph (NE)    
Max Wind Speed 17 mph    
Max Gust Speed 21 mph    
Visibility 9 miles    
Events Rain    
T = Trace of Precipitation, MM = Missing Value Source: NWS Daily Summary

Daily Weather History Graph

Daily Weather History Graph

Search for Another Location

Airport or City:

Trip Planner

Search our weather history database for the weather conditions in past years. The results will help you decide how hot, cold, wet, or windy it might be!

Date:

Astronomy

Oct. 11, 2014 Rise Set
Actual Time 7:44 AM EDT 7:05 PM EDT
Civil Twilight 7:17 AM EDT 7:32 PM EDT
Nautical Twilight 6:46 AM EDT 8:03 PM EDT
Astronomical Twilight 6:15 AM EDT 8:34 PM EDT
Moon 9:34 PM EDT (10/11) 11:05 AM EDT (10/11)
Length of Visible Light 12h 15m
Length of Day
11h 21m
Waning Gibbous, 87% of the Moon is Illuminated
Oct 11
Waning Gibbous
Oct 15
Last Quarter
Oct 23
New
Oct 30
First Quarter
Nov 6
Full

Hourly Weather History & Observations

Time (EDT) Temp. Dew Point Humidity Pressure Visibility Wind Dir Wind Speed Gust Speed Precip Events Conditions
12:52 AM 51.1 °F 46.9 °F 86% 30.05 in 9.0 mi NNE 8.1 mph - N/A   Overcast
1:38 AM 51.8 °F 46.4 °F 82% 30.03 in 7.0 mi ENE 12.7 mph - 0.00 in Rain Light Rain
1:52 AM 51.1 °F 46.9 °F 86% 30.02 in 7.0 mi NE 8.1 mph - 0.00 in Rain Light Rain
2:02 AM 51.8 °F 48.2 °F 88% 30.03 in 8.0 mi NNE 12.7 mph - 0.00 in   Overcast
2:52 AM 51.1 °F 48.0 °F 89% 30.04 in 7.0 mi North 9.2 mph - 0.01 in   Overcast
3:18 AM 51.8 °F 48.2 °F 88% 30.05 in 7.0 mi NE 9.2 mph - N/A   Overcast
3:26 AM 51.8 °F 48.2 °F 88% 30.04 in 7.0 mi NE 8.1 mph - N/A   Overcast
3:52 AM 52.0 °F 48.0 °F 86% 30.04 in 7.0 mi NNE 10.4 mph - N/A   Overcast
4:52 AM 51.8 °F 48.2 °F 88% 30.05 in 7.0 mi NNE 10.4 mph - N/A   Overcast
5:20 AM 51.8 °F 46.4 °F 82% 30.06 in 9.0 mi NE 10.4 mph - N/A   Overcast
5:52 AM 51.8 °F 46.4 °F 82% 30.06 in 10.0 mi NNE 12.7 mph - N/A   Overcast
6:52 AM 50.0 °F 45.0 °F 83% 30.09 in 10.0 mi NNE 10.4 mph - N/A   Overcast
7:52 AM 50.0 °F 44.1 °F 80% 30.11 in 10.0 mi NNE 9.2 mph - N/A   Overcast
8:52 AM 50.0 °F 44.1 °F 80% 30.14 in 10.0 mi NNE 11.5 mph - N/A   Mostly Cloudy
9:52 AM 51.1 °F 43.0 °F 74% 30.15 in 10.0 mi NE 12.7 mph - N/A   Mostly Cloudy
10:52 AM 53.1 °F 43.0 °F 69% 30.15 in 10.0 mi ENE 11.5 mph - N/A   Mostly Cloudy
11:52 AM 55.9 °F 44.1 °F 64% 30.16 in 10.0 mi ENE 9.2 mph - N/A   Mostly Cloudy
12:52 PM 59.0 °F 43.0 °F 55% 30.17 in 10.0 mi ENE 8.1 mph - N/A   Mostly Cloudy
1:52 PM 61.0 °F 43.0 °F 52% 30.15 in 10.0 mi ENE 8.1 mph - N/A   Mostly Cloudy
2:52 PM 61.0 °F 41.0 °F 48% 30.13 in 10.0 mi NE 9.2 mph 16.1 mph N/A   Overcast
3:52 PM 60.1 °F 41.0 °F 49% 30.14 in 10.0 mi NE 9.2 mph - N/A   Overcast
4:52 PM 59.0 °F 39.2 °F 48% 30.13 in 10.0 mi NE 11.5 mph - N/A   Overcast
5:52 PM 57.9 °F 39.9 °F 51% 30.13 in 10.0 mi NNE 11.5 mph - N/A   Overcast
6:52 PM 57.0 °F 39.9 °F 53% 30.14 in 10.0 mi NNE 8.1 mph - N/A   Overcast
7:52 PM 55.9 °F 39.9 °F 55% 30.14 in 10.0 mi NE 5.8 mph - N/A   Overcast
8:52 PM 55.0 °F 39.9 °F 57% 30.14 in 10.0 mi NNE 6.9 mph - N/A   Overcast
9:52 PM 55.0 °F 39.0 °F 55% 30.15 in 10.0 mi NE 9.2 mph - N/A   Overcast
10:52 PM 53.1 °F 37.9 °F 57% 30.16 in 10.0 mi NE 10.4 mph - N/A   Mostly Cloudy
11:52 PM 48.9 °F 37.9 °F 66% 30.15 in 10.0 mi East 6.9 mph - N/A   Mostly Cloudy